Weather History for Ramona, CA

Change the Weather History Date:

Tuesday, January 22, 2013

  Actual Average Record
Temperature  
Mean Temperature 56 °F 50 °F  
Max Temperature 82 °F 65 °F 82 °F (1994)
Min Temperature 29 °F 35 °F 23 °F (2007)
Degree Days  
Heating Degree Days 9 15  
Month to date heating degree days 398 330  
Since 1 July heating degree days 1200 1218  
Cooling Degree Days 0 0  
Month to date cooling degree days 0 0  
Year to date cooling degree days 0 0  
Growing Degree Days 5 (Base 50)    
Moisture  
Dew Point 20 °F    
Average Humidity 32    
Maximum Humidity 59    
Minimum Humidity 5    
Precipitation  
Precipitation 0.00 in 0.11 in 1.02 in (1996)
Month to date precipitation 0.23 2.64  
Year to date precipitation 0.23 2.64  
Since 1 July precipitation 3.87 7.35  
Snow  
Snow 0.00 in - - ()
Month to date snowfall 0.0  
Year to date snowfall 0.0  
Since 1 July snowfall 0.0  
Snow Depth 0.00 in    
Sea Level Pressure  
Sea Level Pressure 30.07 in    
Wind  
Wind Speed 4 mph (SSE)    
Max Wind Speed 14 mph    
Max Gust Speed 16 mph    
Visibility 10 miles    
Events      
T = Trace of Precipitation, MM = Missing Value Source: NWS Daily Summary

Daily Weather History Graph

Daily Weather History Graph

Search for Another Location

Airport:

Trip Planner

Search our weather history database for the weather conditions in past years. The results will help you decide how hot, cold, wet, or windy it might be!

Date:

Astronomy

Jan. 22, 2013 Rise Set
Actual Time 6:48 AM PST 5:10 PM PST
Civil Twilight 6:21 AM PST 5:37 PM PST
Nautical Twilight 5:51 AM PST 6:07 PM PST
Astronomical Twilight 5:22 AM PST 6:36 PM PST
Moon 1:39 PM PST (1/22) 3:11 AM PST (1/22)
Length of Visible Light 11h 15m
Length of Day
10h 22m
Waxing Gibbous, 83% of the Moon is Illuminated
Jan 22
Waxing Gibbous
Jan 26
Full
Feb 3
Last Quarter
Feb 9
New
Feb 17
First Quarter

Hourly Weather History & Observations

Time (PST) Temp. Windchill Dew Point Humidity Pressure Visibility Wind Dir Wind Speed Gust Speed Precip Events Conditions
12:53 AM 37.0 °F 34.5 °F 18.0 °F 46% 30.07 in 10.0 mi SE 3.5 mph - N/A   Clear
1:53 AM 37.0 °F - 17.1 °F 44% 30.06 in 10.0 mi Calm Calm - N/A   Clear
2:53 AM 34.0 °F - 17.1 °F 50% 30.06 in 10.0 mi Calm Calm - N/A   Clear
3:53 AM 34.0 °F 29.8 °F 18.0 °F 52% 30.06 in 10.0 mi ESE 4.6 mph - N/A   Clear
4:53 AM 32.0 °F 27.5 °F 19.0 °F 59% 30.07 in 10.0 mi SE 4.6 mph - N/A   Clear
5:53 AM 33.1 °F - 18.0 °F 54% 30.09 in 10.0 mi Calm Calm - N/A   Clear
6:53 AM 30.0 °F 26.5 °F 18.0 °F 61% 30.10 in 10.0 mi ESE 3.5 mph - N/A   Clear
7:53 AM 44.1 °F 41.5 °F 24.1 °F 45% 30.09 in 10.0 mi East 4.6 mph - N/A   Clear
8:53 AM 63.0 °F - 19.9 °F 19% 30.08 in 10.0 mi Calm Calm - N/A   Clear
9:53 AM 73.0 °F - 10.0 °F 9% 30.09 in 10.0 mi ENE 4.6 mph - N/A   Clear
10:53 AM 77.0 °F - 5.0 °F 6% 30.09 in 10.0 mi SW 4.6 mph - N/A   Clear
11:53 AM 78.1 °F - 3.9 °F 6% 30.04 in 10.0 mi Calm Calm - N/A   Clear
12:53 PM 80.1 °F - 5.0 °F 6% 30.01 in 10.0 mi SSW 3.5 mph - N/A   Clear
1:53 PM 78.1 °F - 19.0 °F 11% 30.01 in 10.0 mi West 9.2 mph - N/A   Clear
2:53 PM 73.9 °F - 19.9 °F 13% 30.04 in 10.0 mi NW 10.4 mph - N/A   Clear
3:53 PM 69.1 °F - 19.0 °F 15% 30.04 in 10.0 mi NW 5.8 mph - N/A   Clear
4:53 PM 63.0 °F - 24.1 °F 23% 30.06 in 10.0 mi Calm Calm - N/A   Clear
5:53 PM 54.0 °F - 25.0 °F 33% 30.08 in 10.0 mi Calm Calm - N/A   Clear
6:53 PM 50.0 °F - 28.0 °F 43% 30.10 in 10.0 mi WSW 3.5 mph - N/A   Clear
7:53 PM 46.0 °F 43.9 °F 28.0 °F 50% 30.10 in 10.0 mi East 4.6 mph - N/A   Clear
8:53 PM 46.0 °F - 28.0 °F 50% 30.08 in 10.0 mi Calm Calm - N/A   Clear
9:53 PM 43.0 °F - 28.0 °F 56% 30.08 in 10.0 mi Calm Calm - N/A   Clear
10:53 PM 43.0 °F - 28.0 °F 56% 30.08 in 10.0 mi Calm Calm - N/A   Clear
11:53 PM 43.0 °F 41.3 °F 28.9 °F 58% 30.07 in 10.0 mi SSE 3.5 mph - N/A   Clear